TimeCST,TemperatureF,Dew PointF,Humidity,Sea Level PressureIn,VisibilityMPH,Wind Direction,Wind SpeedMPH,Gust SpeedMPH,PrecipitationIn,Events,Conditions,WindDirDegrees,DateUTC
12:00 AM,69,55,51,29.82,12,East,9.2,,,,,100,2013-01-05 06:00:00
12:00 AM,68.0,55.4,64,30.01,-9999.0,East,9.2,-,N/A,,Clear,100,2013-01-05 06:00:00
1:00 AM,68.0,55.4,64,30.01,-9999.0,East,10.4,-,N/A,,Clear,100,2013-01-05 07:00:00
2:00 AM,68.0,53.6,60,29.99,-9999.0,East,9.2,-,N/A,,Clear,100,2013-01-05 08:00:00
3:00 AM,68.0,55.4,64,29.97,-9999.0,East,10.4,-,N/A,,Clear,90,2013-01-05 09:00:00
4:00 AM,68.0,57.2,68,29.99,-9999.0,East,13.8,25.3,N/A,,Clear,100,2013-01-05 10:00:00
5:00 AM,68.0,57.2,68,30.00,-9999.0,East,12.7,-,N/A,,Clear,100,2013-01-05 11:00:00
6:00 AM,67,58,65,29.87,12,East,12.7,,,,Scattered Clouds,90,2013-01-05 12:00:00
6:00 AM,68.0,57.2,68,30.02,6.2,East,12.7,26.5,N/A,,Partly Cloudy,90,2013-01-05 12:00:00
7:00 AM,69.8,57.2,64,30.04,-9999.0,East,15.0,26.5,N/A,,Clear,80,2013-01-05 13:00:00
8:00 AM,73.4,57.2,57,30.05,-9999.0,East,15.0,27.6,N/A,,Clear,80,2013-01-05 14:00:00
9:00 AM,78,56,36,29.88,12,East,15.0,,,,Clear,90,2013-01-05 15:00:00
9:00 AM,77.0,55.4,47,30.06,-9999.0,East,15.0,26.5,N/A,,Clear,90,2013-01-05 15:00:00
10:00 AM,78.8,55.4,44,30.06,-9999.0,East,15.0,26.5,N/A,,Clear,80,2013-01-05 16:00:00
11:00 AM,80.6,55.4,42,30.04,-9999.0,ENE,12.7,24.2,N/A,,Clear,70,2013-01-05 17:00:00
12:00 PM,80,53,29,29.85,12,ENE,18.4,,,,Scattered Clouds,60,2013-01-05 18:00:00
12:00 PM,80.6,53.6,39,30.02,6.2,ENE,18.4,29.9,N/A,,Partly Cloudy,60,2013-01-05 18:00:00
1:00 PM,80.6,55.4,42,29.99,6.2,ENE,18.4,29.9,N/A,,Partly Cloudy,60,2013-01-05 19:00:00
2:00 PM,80.6,55.4,42,29.96,6.2,ENE,18.4,31.1,N/A,,Partly Cloudy,60,2013-01-05 20:00:00
3:00 PM,80,54,31,29.78,12,NE,23.0,,,,Scattered Clouds,50,2013-01-05 21:00:00
3:00 PM,80.6,55.4,42,29.94,6.2,NE,23.0,34.5,N/A,,Partly Cloudy,50,2013-01-05 21:00:00
4:00 PM,78.8,53.6,42,29.94,6.2,ENE,19.6,31.1,N/A,,Partly Cloudy,60,2013-01-05 22:00:00
5:00 PM,75.2,55.4,50,29.96,6.2,ENE,16.1,27.6,N/A,,Partly Cloudy,60,2013-01-05 23:00:00
6:00 PM,71.6,57.2,60,29.96,6.2,ENE,12.7,24.2,N/A,,Partly Cloudy,70,2013-01-06 00:00:00
7:00 PM,71.6,55.4,57,29.98,6.2,East,12.7,24.2,N/A,,Partly Cloudy,80,2013-01-06 01:00:00
8:00 PM,71.6,55.4,57,29.99,6.2,ENE,17.3,28.8,N/A,,Partly Cloudy,70,2013-01-06 02:00:00
9:00 PM,71,56,48,29.85,12,East,11.5,,,,Scattered Clouds,90,2013-01-06 03:00:00
9:00 PM,71.6,55.4,57,30.01,6.2,East,11.5,23.0,N/A,,Partly Cloudy,90,2013-01-06 03:00:00
10:00 PM,69.8,55.4,60,30.01,6.2,East,13.8,27.6,N/A,,Partly Cloudy,100,2013-01-06 04:00:00
11:00 PM,69.8,57.2,64,30.00,6.2,East,12.7,24.2,N/A,,Partly Cloudy,100,2013-01-06 05:00:00